Location: Palomar Mountain Lodge
(33.3110°N, 116.8495°W)
Time: 18:35:24
(UTC-08:00)

Cosmos 1441 Rocket - Pass Details

Date: 12 July 2018
Orbit: 497 x 542 km, 81.1° (Epoch: 18 November)

Event Time Altitude Azimuth Distance (km) Brightness Sun altitude
Rises 21:06:20 0° 352° (N) 2,584 7.5 -12.8°
Reaches altitude 10° 21:08:27 10° 352° (N) 1,699 6.5 -13.1°
Maximum altitude 21:12:10 89° 75° (ENE) 503 3.0 -13.8°
Enters shadow 21:15:03 16° 173° (S) 1,352 4.9 -14.2°
